DW5920 Weather Reports


time (UTC)temp
C
wind
direction
speed
KPH
gust
KPH
rain 1hr
cm
rain 24hr
cm
rain mn
cm
humidity
%
barometer
mb
20260507135403 24 220 4.8 16.1 0.00 0.00 0.00 40 1007.9
20260507134503 23 225 4.8 17.7 0.00 0.00 0.00 42 1008.0
20260507133603 23 220 3.2 16.1 0.00 0.00 0.00 42 1008.2
20260507132703 23 223 6.4 16.1 0.00 0.00 0.00 43 1008.2
20260507131803 23 227 6.4 19.3 0.00 0.00 0.00 41 1008.3
20260507130903 23 227 6.4 16.1 0.00 0.00 0.00 41 1008.2
20260507130003 24 207 4.8 17.7 0.00 0.00 0.00 44 1008.3
20260507125403 23 190 4.8 19.3 0.00 0.00 0.00 42 1008.4
20260507124503 23 228 6.4 19.3 0.00 0.00 0.00 42 1008.5
20260507123603 23 217 6.4 19.3 0.00 0.00 0.00 44 1008.5
20260507122705 23 223 3.2 14.5 0.00 0.00 0.00 45 1008.6
20260507121803 23 185 3.2 16.1 0.00 0.00 0.00 45 1008.7
20260507120903 23 209 3.2 16.1 0.00 0.00 0.00 45 1008.8
20260507120004 23 194 3.2 19.3 0.00 0.00 0.00 45 1008.9
20260507115403 23 189 4.8 17.7 0.00 0.00 0.00 46 1008.8
20260507114503 23 219 3.2 12.9 0.00 0.00 0.00 48 1009.0
20260507113603 23 199 6.4 16.1 0.00 0.00 0.00 49 1009.1
20260507112703 23 164 8.0 14.5 0.00 0.00 0.00 49 1009.1
20260507112018 22 167 6.4 14.5 0.00 0.00 0.00 50 1009.3
20260507111121 23 168 3.2 14.5 0.00 0.00 0.00 47 1009.3
20260507110003 22 200 3.2 16.1 0.00 0.00 0.00 49 1009.3
20260507105403 22 176 3.2 16.1 0.00 0.00 0.00 54 1009.4
20260507104504 21 123 6.4 16.1 0.00 0.00 0.00 54 1009.4
20260507103603 21 134 4.8 19.3 0.00 0.00 0.00 55 1009.5
20260507102703 22 169 3.2 14.5 0.00 0.00 0.00 56 1009.6
20260507101803 22 180 3.2 16.1 0.00 0.00 0.00 57 1009.6
20260507100903 21 205 4.8 16.1 0.00 0.00 0.00 58 1009.7
20260507100219 21 122 6.4 17.7 0.00 0.00 0.00 62 1009.8
20260507095620 21 129 6.4 12.9 0.00 0.00 0.00 61 1009.7
20260507094503 21 133 4.8 16.1 0.00 0.00 0.00 59 1009.7
20260507093603 21 200 3.2 9.7 0.00 0.00 0.00 63 1009.8
20260507092703 20 179 3.2 12.9 0.00 0.00 0.00 64 1009.8
20260507091803 20 126 1.6 11.3 0.00 0.00 0.00 67 1009.8
20260507090903 19 169 1.6 9.7 0.00 0.00 0.00 69 1009.9
20260507090219 18 176 1.6 8.0 0.00 0.00 0.00 70 1009.9
20260507085403 18 196 1.6 9.7 0.00 0.00 0.00 72 1009.9
20260507084503 18 146 3.2 11.3 0.00 0.00 0.00 72 1009.8
20260507083603 18 119 3.2 9.7 0.00 0.00 0.00 73 1009.8
20260507082703 17 110 4.8 12.9 0.00 0.00 0.00 73 1009.8
20260507081803 17 90 3.2 12.9 0.00 0.00 0.00 73 1009.7
20260507080903 17 99 3.2 12.9 0.00 0.00 0.00 73 1009.7
20260507080003 17 100 1.6 9.7 0.00 0.00 0.00 74 1009.7
20260507075403 17 109 1.6 8.0 0.00 0.00 0.00 74 1009.6
20260507074503 16 97 3.2 9.7 0.00 0.00 0.00 74 1009.6
20260507073603 16 90 4.8 11.3 0.00 0.00 0.00 75 1009.5
20260507072919 16 89 3.2 9.7 0.00 0.00 0.00 76 1009.4
20260507071803 16 89 3.2 11.3 0.00 0.00 0.00 77 1009.4
20260507071118 15 87 3.2 11.3 0.00 0.00 0.00 77 1009.3
20260507070006 15 70 4.8 11.3 0.00 0.00 0.00 80 1009.2
20260507065617 15 66 3.2 11.3 0.00 0.00 0.00 80 1009.3
20260507064503 15 89 3.2 9.7 0.00 0.00 0.00 80 1009.2
20260507063817 14 84 1.6 8.0 0.00 0.00 0.00 81 1009.2
20260507062703 13 78 1.6 8.0 0.00 0.00 0.00 82 1009.1
20260507061803 13 65 1.6 8.0 0.00 0.00 0.00 83 1008.9
20260507060903 13 61 0.0 6.4 0.00 0.00 0.00 83 1008.9
20260507060003 13 65 0.0 3.2 0.00 0.00 0.00 83 1008.8
20260507055403 13 72 0.0 3.2 0.00 0.00 0.00 83 1008.7
20260507054503 13 80 0.0 3.2 0.00 0.00 0.00 83 1008.7
20260507053603 13 101 0.0 3.2 0.00 0.00 0.00 83 1008.6
20260507052703 13 81 0.0 3.2 0.00 0.00 0.00 83 1008.6
20260507051803 13 77 0.0 1.6 0.00 0.00 0.00 84 1008.7
20260507051120 13 78 0.0 1.6 0.00 0.00 0.00 83 1008.6
20260507050003 13 0 0.0 0.0 0.00 0.00 0.00 83 1008.7
20260507045403 13 67 0.0 3.2 0.00 0.00 0.00 83 1008.6
20260507044503 13 67 0.0 3.2 0.00 0.00 0.00 84 1008.4
20260507043818 13 68 0.0 1.6 0.00 0.00 0.00 84 1008.4
20260507042703 12 0 0.0 0.0 0.00 0.00 0.00 84 1008.2
20260507042018 12 79 0.0 1.6 0.00 0.00 0.00 84 1008.2
20260507040903 12 75 0.0 1.6 0.00 0.00 0.00 84 1008.2
20260507040003 12 0 0.0 0.0 0.00 0.00 0.00 84 1008.1
20260507035403 12 78 0.0 1.6 0.00 0.00 0.00 83 1008.1
20260507034503 12 77 0.0 1.6 0.00 0.00 0.00 83 1008.0
20260507033603 12 0 0.0 0.0 0.00 0.00 0.00 83 1007.9
20260507032921 12 0 0.0 0.0 0.00 0.00 0.00 83 1008.0
20260507031803 12 0 0.0 0.0 0.00 0.00 0.00 84 1008.0
20260507030903 12 0 0.0 0.0 0.00 0.00 0.00 83 1008.1
20260507030003 12 0 0.0 0.0 0.00 0.00 0.00 81 1008.0
20260507025403 12 0 0.0 0.0 0.00 0.00 0.00 82 1007.9
20260507024503 12 72 0.0 1.6 0.00 0.00 0.00 83 1007.9
20260507023603 12 79 0.0 1.6 0.00 0.00 0.00 82 1007.9
20260507022703 12 0 0.0 0.0 0.00 0.00 0.00 82 1007.9
20260507021803 12 0 0.0 0.0 0.00 0.00 0.00 82 1007.9
20260507021116 12 0 0.0 0.0 0.00 0.00 0.00 81 1007.9
20260507020003 13 0 0.0 0.0 0.00 0.00 0.00 81 1007.8
20260507015403 13 344 0.0 1.6 0.00 0.00 0.00 82 1008.0
20260507014503 13 334 0.0 4.8 0.00 0.00 0.00 82 1008.0
20260507013603 13 333 0.0 3.2 0.00 0.00 0.00 80 1008.0
20260507012703 13 0 0.0 0.0 0.00 0.00 0.00 77 1008.1
20260507011803 13 0 0.0 0.0 0.00 0.00 0.00 77 1008.1
20260507011117 13 0 0.0 0.0 0.00 0.00 0.00 76 1008.1
20260507010003 14 0 0.0 0.0 0.00 0.00 0.00 75 1008.3
20260507005403 14 0 0.0 0.0 0.00 0.00 0.00 78 1008.3
20260507004503 15 0 0.0 0.0 0.00 0.00 0.00 75 1008.4
20260507003603 15 0 0.0 0.0 0.00 0.00 0.00 76 1008.3
20260507002703 15 0 0.0 0.0 0.00 0.00 0.00 74 1008.4
20260507001803 15 0 0.0 0.0 0.00 0.00 0.00 73 1008.4
20260507000903 15 0 0.0 0.0 0.00 0.00 0.00 71 1008.4
20260507000003 15 0 0.0 0.0 0.00 0.00 0.00 71 1008.5
20260506235403 15 0 0.0 0.0 0.00 0.00 0.00 71 1008.5
20260506234503 15 0 0.0 0.0 0.00 0.00 0.00 71 1008.6
20260506233603 15 0 0.0 0.0 0.00 0.00 0.00 70 1008.5
20260506232703 15 178 0.0 4.8 0.00 0.00 0.00 70 1008.6
20260506232021 15 185 0.0 8.0 0.00 0.00 0.00 69 1008.6
20260506230903 16 170 1.6 6.4 0.00 0.00 0.00 67 1008.6
20260506230221 16 178 1.6 9.7 0.00 0.00 0.00 66 1008.6
20260506225403 16 180 0.0 8.0 0.00 0.00 0.00 65 1008.6
20260506224503 16 191 0.0 1.6 0.00 0.00 0.00 64 1008.6
20260506223603 16 0 0.0 0.0 0.00 0.00 0.00 63 1008.5
20260506222703 16 0 0.0 0.0 0.00 0.00 0.00 62 1008.5
20260506221803 16 245 0.0 4.8 0.00 0.00 0.00 62 1008.5
20260506220903 16 231 0.0 3.2 0.00 0.00 0.00 61 1008.4
20260506220004 17 232 0.0 4.8 0.00 0.00 0.00 60 1008.5
20260506215403 17 237 0.0 4.8 0.00 0.00 0.00 60 1008.5
20260506214503 17 0 0.0 0.0 0.00 0.00 0.00 59 1008.4
20260506213603 17 0 0.0 0.0 0.00 0.00 0.00 59 1008.4
20260506212703 17 0 0.0 0.0 0.00 0.00 0.00 59 1008.4
20260506211803 17 252 0.0 3.2 0.00 0.00 0.00 58 1008.2
20260506210903 17 0 0.0 0.0 0.00 0.00 0.00 58 1008.2
20260506210217 17 0 0.0 0.0 0.00 0.00 0.00 58 1008.2
20260506205403 18 291 0.0 6.4 0.00 0.00 0.00 57 1008.0
20260506204503 18 276 0.0 9.7 0.00 0.00 0.00 57 1007.9
20260506203603 18 271 0.0 8.0 0.00 0.00 0.00 56 1007.8
20260506202920 18 276 0.0 8.0 0.00 0.00 0.00 55 1007.8
20260506201803 18 271 0.0 6.4 0.00 0.00 0.00 54 1007.6
20260506200903 19 248 0.0 8.0 0.00 0.00 0.00 53 1007.6
20260506200217 19 270 1.6 8.0 0.00 0.00 0.00 53 1007.5
20260506195619 19 277 3.2 14.5 0.00 0.00 0.00 52 1007.5
20260506194503 20 281 3.2 12.9 0.00 0.00 0.00 51 1007.3
20260506193603 20 278 1.6 14.5 0.00 0.00 0.00 50 1007.3
20260506192703 20 284 1.6 11.3 0.00 0.00 0.00 49 1007.2
20260506191803 21 278 1.6 11.3 0.00 0.00 0.00 47 1007.1
20260506190903 21 273 1.6 14.5 0.00 0.00 0.00 46 1007.0
20260506190218 22 271 3.2 22.5 0.00 0.00 0.00 45 1006.9
20260506185620 22 280 3.2 19.3 0.00 0.00 0.00 44 1006.9
20260506184503 22 281 1.6 14.5 0.00 0.00 0.00 44 1006.8
20260506183603 23 265 3.2 14.5 0.00 0.00 0.00 43 1006.8
20260506182703 23 255 3.2 16.1 0.00 0.00 0.00 42 1006.8
20260506181803 23 249 4.8 19.3 0.00 0.00 0.00 41 1006.7
20260506180903 23 247 8.0 20.9 0.00 0.00 0.00 41 1006.7
20260506180004 24 247 6.4 19.3 0.00 0.00 0.00 40 1006.8
20260506175620 24 246 6.4 19.3 0.00 0.00 0.00 39 1006.7
20260506174718 24 251 8.0 19.3 0.00 0.00 0.00 39 1006.7
20260506173603 25 234 4.8 16.1 0.00 0.00 0.00 36 1006.6
20260506172703 26 204 3.2 12.9 0.00 0.00 0.00 33 1006.5
20260506172020 27 194 1.6 9.7 0.00 0.00 0.00 31 1006.6
20260506170903 26 249 0.0 1.6 0.00 0.00 0.00 29 1006.6
20260506170219 26 238 0.0 1.6 0.00 0.00 0.00 28 1006.7
20260506165403 26 251 1.6 11.3 0.00 0.00 0.00 29 1006.7
20260506164503 26 189 1.6 11.3 0.00 0.00 0.00 30 1006.8
20260506163821 26 136 3.2 11.3 0.00 0.00 0.00 30 1006.8
20260506162703 26 139 1.6 12.9 0.00 0.00 0.00 31 1006.9
20260506161803 26 143 1.6 11.3 0.00 0.00 0.00 31 1006.9
20260506160903 26 142 1.6 9.7 0.00 0.00 0.00 30 1007.0
20260506160220 26 138 1.6 9.7 0.00 0.00 0.00 30 1007.0
20260506155617 26 208 1.6 11.3 0.00 0.00 0.00 29 1007.0
20260506154503 25 227 3.2 11.3 0.00 0.00 0.00 30 1007.2
20260506153603 26 208 3.2 17.7 0.00 0.00 0.00 31 1007.2
20260506152703 25 145 1.6 9.7 0.00 0.00 0.00 31 1007.4
20260506151803 25 113 3.2 12.9 0.00 0.00 0.00 31 1007.4
20260506150903 25 126 1.6 9.7 0.00 0.00 0.00 30 1007.7
20260506150221 25 201 4.8 14.5 0.00 0.00 0.00 31 1007.7
20260506145403 25 232 3.2 11.3 0.00 0.00 0.00 31 1007.8
20260506144503 25 277 1.6 11.3 0.00 0.00 0.00 31 1008.0
20260506143603 25 316 1.6 11.3 0.00 0.00 0.00 32 1008.1
20260506142703 25 49 0.0 6.4 0.00 0.00 0.00 31 1008.3
20260506141803 25 175 1.6 11.3 0.00 0.00 0.00 31 1008.5
20260506140903 25 151 1.6 12.9 0.00 0.00 0.00 31 1008.5
20260506140003 25 230 1.6 8.0 0.00 0.00 0.00 32 1008.6